^^
Historische Daten
 
Tag Summe für Dezember 16, 2018 Einheit:  Metric    English   Beide
« vorheriger Tag
nächster Tag »
Tag Woche Monat Jahr Benutzerdefiniert
  Aktuell: Max: Min: Durchschnitt:
Temperatur: -6.3 °C -5.9 °C -6.3 °C -6.1 °C
Tau Punkt: -7.0 °C -6.8 °C -7.0 °C -6.8 °C
Luftfeuchte: 95% 95% 94% 94%
Windgeschwindigkeit: 29.6km/h 29.6km/h 9.3km/h 16.5km/h
Wind Böen: 19.5km/h 19.5km/h - -
WindSSE - - SSE
Luftdruck: 1018.2 hPa 1022.2 hPa 1018.2 hPa -
Niederschlag: 0.0 mm      
Historical Graphs
 
 
Tabellendaten für Dezember 16, 2018
Zeit Temperatur Tau Punkt Luftdruck Wind Windgeschwindigkeit Wind Böen Luftfeuchte Regen Rate (Stunde) Solar Conditions
00:04 -6.0 °C -6.8 °C 1022.0 hPa SSE 16.9 km/h 11.3 km/h 94% 0.2 mm 0.00 W/m2 RA
00:09 -6.0 °C -6.8 °C 1022.0 hPa SSE 16.7 km/h 8.7 km/h 94% 0.2 mm 0.00 W/m2 RA
00:14 -6.0 °C -6.8 °C 1022.1 hPa SSE 9.3 km/h 5.0 km/h 94% 0.2 mm 0.00 W/m2 BKN
00:19 -6.0 °C -6.8 °C 1022.2 hPa SSE 16.7 km/h 9.3 km/h 94% 0.2 mm 0.00 W/m2 BKN
00:24 -6.0 °C -6.8 °C 1022.1 hPa SSE 13.0 km/h 9.2 km/h 94% 0.0 mm 0.00 W/m2 BKN
00:29 -5.9 °C -6.8 °C 1021.9 hPa SE 9.3 km/h 7.1 km/h 94% 0.0 mm 0.00 W/m2 BKN
00:34 -5.9 °C -6.8 °C 1021.8 hPa SSE 11.1 km/h 4.0 km/h 94% 0.0 mm 0.00 W/m2 BKN
00:39 -5.9 °C -6.8 °C 1021.7 hPa SSE 9.3 km/h 8.0 km/h 94% 0.0 mm 0.00 W/m2 BKN
00:44 -5.9 °C -6.8 °C 1021.7 hPa SE 9.3 km/h 7.9 km/h 94% 0.0 mm 0.00 W/m2 BKN
00:49 -5.9 °C -6.8 °C 1021.6 hPa SSE 16.7 km/h 8.8 km/h 94% 0.0 mm 0.00 W/m2 BKN
00:54 -5.9 °C -6.8 °C 1021.5 hPa South 13.0 km/h 9.7 km/h 94% 0.0 mm 0.00 W/m2 BKN
00:59 -6.0 °C -6.8 °C 1021.4 hPa SSE 14.8 km/h 8.8 km/h 94% 0.0 mm 0.00 W/m2 BKN
01:04 -6.0 °C -6.8 °C 1021.3 hPa SSE 9.3 km/h 4.7 km/h 94% 0.0 mm 0.00 W/m2 BKN
01:09 -6.0 °C -6.8 °C 1021.1 hPa SSE 20.4 km/h 11.9 km/h 94% 0.0 mm 0.00 W/m2 BKN
01:14 -6.0 °C -6.8 °C 1021.0 hPa SSE 13.5 km/h 6.0 km/h 94% 0.0 mm 0.00 W/m2 OVC
01:19 -6.0 °C -6.8 °C 1020.9 hPa SSE 16.7 km/h 10.0 km/h 94% 0.0 mm 0.00 W/m2 OVC
01:24 -6.0 °C -6.8 °C 1020.9 hPa SSE 11.9 km/h 13.8 km/h 94% 0.0 mm 0.00 W/m2 OVC
01:29 -6.0 °C -6.8 °C 1020.8 hPa SE 16.7 km/h 14.3 km/h 94% 0.0 mm 0.00 W/m2 OVC
01:34 -6.0 °C -6.8 °C 1020.7 hPa South 14.8 km/h 11.7 km/h 94% 0.0 mm 0.00 W/m2 OVC
01:39 -6.0 °C -6.8 °C 1020.7 hPa SSE 16.9 km/h 12.1 km/h 94% 0.0 mm 0.00 W/m2 OVC
01:44 -6.1 °C -6.9 °C 1020.6 hPa SSE 14.8 km/h 9.8 km/h 94% 0.0 mm 0.00 W/m2 OVC
01:49 -6.0 °C -6.8 °C 1020.5 hPa South 14.8 km/h 12.4 km/h 94% 0.0 mm 0.00 W/m2 OVC
01:54 -6.1 °C -6.9 °C 1020.4 hPa SE 20.4 km/h 16.4 km/h 94% 0.0 mm 0.00 W/m2 OVC
01:59 -6.1 °C -6.9 °C 1020.4 hPa SSE 16.7 km/h 10.5 km/h 94% 0.0 mm 0.00 W/m2 OVC
02:04 -6.1 °C -6.9 °C 1020.4 hPa South 11.1 km/h 3.2 km/h 94% 0.0 mm 0.00 W/m2 OVC
02:09 -6.1 °C -6.9 °C 1020.4 hPa SSE 16.7 km/h 8.8 km/h 94% 0.0 mm 0.00 W/m2 OVC
02:14 -6.1 °C -6.9 °C 1020.5 hPa SSE 18.5 km/h 15.4 km/h 94% 0.0 mm 0.00 W/m2 BKN
02:19 -6.1 °C -6.9 °C 1020.3 hPa SSE 18.5 km/h 13.4 km/h 94% 0.0 mm 0.00 W/m2 BKN
02:24 -6.1 °C -6.9 °C 1020.1 hPa SE 22.2 km/h 11.7 km/h 94% 0.0 mm 0.00 W/m2 BKN
02:29 -6.1 °C -6.9 °C 1020.2 hPa SE 13.5 km/h 14.5 km/h 94% 0.0 mm 0.00 W/m2 BKN
02:34 -6.1 °C -6.9 °C 1020.1 hPa South 24.1 km/h 12.1 km/h 94% 0.0 mm 0.00 W/m2 BKN
02:39 -6.1 °C -6.9 °C 1020.0 hPa SSE 16.7 km/h 14.5 km/h 94% 0.0 mm 0.00 W/m2 BKN
02:44 -6.1 °C -6.9 °C 1019.8 hPa South 16.7 km/h 9.7 km/h 94% 0.0 mm 0.00 W/m2 BKN
02:49 -6.1 °C -6.9 °C 1019.9 hPa SSE 13.0 km/h 10.1 km/h 94% 0.0 mm 0.00 W/m2 BKN
02:54 -6.1 °C -6.9 °C 1019.8 hPa SW 18.5 km/h 9.5 km/h 94% 0.0 mm 0.00 W/m2 BKN
02:59 -6.1 °C -6.9 °C 1019.7 hPa SSE 9.3 km/h 5.5 km/h 94% 0.0 mm 0.00 W/m2 BKN
03:04 -6.1 °C -6.9 °C 1019.8 hPa SSW 24.1 km/h 9.2 km/h 94% 0.0 mm 0.00 W/m2 BKN
03:09 -6.1 °C -6.9 °C 1019.9 hPa SSW 16.7 km/h 10.9 km/h 94% 0.0 mm 0.00 W/m2 BKN
03:14 -6.1 °C -6.9 °C 1019.8 hPa SSE 18.5 km/h 11.3 km/h 94% 0.0 mm 0.00 W/m2 OVC
03:19 -6.1 °C -6.9 °C 1019.6 hPa SSE 18.5 km/h 7.6 km/h 94% 0.0 mm 0.00 W/m2 OVC
03:24 -6.1 °C -6.9 °C 1019.5 hPa SSE 20.4 km/h 16.3 km/h 94% 0.0 mm 0.00 W/m2 OVC
03:29 -6.1 °C -6.9 °C 1019.5 hPa South 20.4 km/h 11.3 km/h 94% 0.0 mm 0.00 W/m2 OVC
03:34 -6.1 °C -6.8 °C 1019.4 hPa SSE 20.3 km/h 14.8 km/h 95% 0.0 mm 0.00 W/m2 OVC
03:39 -6.1 °C -6.8 °C 1019.3 hPa SSE 16.7 km/h 15.6 km/h 95% 0.0 mm 0.00 W/m2 OVC
03:44 -6.1 °C -6.8 °C 1019.3 hPa SSE 20.4 km/h 9.0 km/h 95% 0.0 mm 0.00 W/m2 OVC
03:49 -6.1 °C -6.8 °C 1019.2 hPa WSW 27.8 km/h 16.1 km/h 95% 0.0 mm 0.00 W/m2 OVC
03:54 -6.1 °C -6.8 °C 1019.1 hPa SSE 25.9 km/h 11.7 km/h 95% 0.0 mm 0.00 W/m2 OVC
03:59 -6.2 °C -6.8 °C 1019.0 hPa SSE 10.1 km/h 10.1 km/h 95% 0.0 mm 0.00 W/m2 OVC
04:04 -6.2 °C -6.8 °C 1018.8 hPa SSE 18.5 km/h 11.9 km/h 95% 0.0 mm 0.00 W/m2 OVC
04:09 -6.2 °C -6.8 °C 1018.7 hPa South 16.7 km/h 14.3 km/h 95% 0.0 mm 0.00 W/m2 OVC
04:14 -6.2 °C -6.8 °C 1018.7 hPa SSE 14.8 km/h 9.7 km/h 95% 0.0 mm 0.00 W/m2 OVC
04:19 -6.2 °C -6.8 °C 1018.5 hPa South 14.8 km/h 8.2 km/h 95% 0.0 mm 0.00 W/m2 OVC
04:24 -6.2 °C -6.8 °C 1018.5 hPa South 11.9 km/h 10.3 km/h 95% 0.0 mm 0.00 W/m2 OVC
04:29 -6.2 °C -6.8 °C 1018.5 hPa SSE 14.8 km/h 14.3 km/h 95% 0.0 mm 0.00 W/m2 OVC
04:34 -6.2 °C -6.9 °C 1018.4 hPa South 18.5 km/h 10.6 km/h 95% 0.0 mm 0.00 W/m2 OVC
04:39 -6.3 °C -6.9 °C 1018.3 hPa SSE 22.2 km/h 6.1 km/h 95% 0.0 mm 0.00 W/m2 OVC
04:44 -6.3 °C -6.9 °C 1018.3 hPa SSW 14.8 km/h 8.7 km/h 95% 0.0 mm 0.00 W/m2 OVC
04:49 -6.3 °C -7.0 °C 1018.2 hPa SSE 29.6 km/h 19.5 km/h 95% 0.0 mm 0.00 W/m2 OVC
© Wetterstation-Johanngeorgenstadt 2010-2018
Besucherstatistik
Besucher gesamt: 1.173.014
Besucher heute: 82
Besucher gestern: 652
gerade online: 8
Seitenaufrufe diese Seite: 4.204
counter Statistiken